This is the latest recevied weather packets stored in our database for station/object 9W2GDL-13. If no packets are shown the sender has not sent any weather packets the latest 10 day(s).
| Time | Temp. | Humidity | Pressure | Rain* | Wind** | Luminosity | Snow |
|---|---|---|---|---|---|---|---|
| 1787579465 | 90° F | 64% | 759.3 mmHg | - | - | - | - |
| 1787578045 | 90° F | 64% | 759 mmHg | - | - | - | - |
| 1787577720 | 90° F | 64% | 759.1 mmHg | - | - | - | - |
| 1787577679 | 90° F | 63% | 759.1 mmHg | - | - | - | - |
| 1787577675 | 90° F | 64% | 759.1 mmHg | - | - | - | - |
| 1787577291 | 89° F | 66% | 759.1 mmHg | - | - | - | - |
| 1787576690 | 88° F | 66% | 759.2 mmHg | - | - | - | - |
| 1787576219 | 92° F | 60% | 759.1 mmHg | - | - | - | - |
| 1787576182 | 91° F | 61% | 759.1 mmHg | - | - | - | - |
| 1787576154 | 92° F | 60% | 759.1 mmHg | - | - | - | - |
| 1787576102 | 92° F | 61% | 759.1 mmHg | - | - | - | - |
| 1787576066 | 92° F | 60% | 759.1 mmHg | - | - | - | - |
| 1787576053 | 92° F | 60% | 759 mmHg | - | - | - | - |
| 1787576024 | 93° F | 59% | 759.1 mmHg | - | - | - | - |
| 1787575969 | 93° F | 59% | 759 mmHg | - | - | - | - |
| 1787575938 | 93° F | 58% | 759 mmHg | - | - | - | - |
| 1787574716 | 92° F | 59% | 758.7 mmHg | - | - | - | - |
| 1787574645 | 92° F | 59% | 758.7 mmHg | - | - | - | - |
| 1787574569 | 92° F | 59% | 758.8 mmHg | - | - | - | - |
| 1787566630 | 95° F | 62% | 757 mmHg | - | - | - | - |
| 1787565729 | 95° F | 60% | 757.2 mmHg | - | - | - | - |
| 1787564828 | 96° F | 60% | 757.1 mmHg | - | - | - | - |
| 1787563927 | 97° F | 56% | 757.1 mmHg | - | - | - | - |
| 1787563026 | 97° F | 56% | 757.1 mmHg | - | - | - | - |
| 1787562125 | 96° F | 56% | 757.3 mmHg | - | - | - | - |
* Rain since midnight (hover to see other rain measurements)
** Current wind speed in m/s (hover to see current wind gust speed)